This is the latest recevied weather packets stored in our database for station/object SQ9RHX-11. If no packets are shown the sender has not sent any weather packets the latest 10 day(s).
| Time | Temp. | Humidity | Pressure | Rain* | Wind** | Luminosity | Snow |
|---|---|---|---|---|---|---|---|
| 1778243319 | 13.33° C | 62% | 1021 hPa | - | - | - | - |
| 1778241519 | 14.44° C | 62% | 1020.8 hPa | - | - | - | - |
| 1778239719 | 13.33° C | 61% | 1020.9 hPa | - | - | - | - |
| 1778237920 | 14.44° C | 61% | 1021.1 hPa | - | - | - | - |
| 1778236121 | 14.44° C | 62% | 1021 hPa | - | - | - | - |
| 1778234321 | 13.89° C | 65% | 1021.1 hPa | - | - | - | - |
| 1778232521 | 12.22° C | 65% | 1021.2 hPa | - | - | - | - |
| 1778230722 | 12.22° C | 66% | 1021 hPa | - | - | - | - |
| 1778228921 | 12.22° C | 68% | 1020.9 hPa | - | - | - | - |
| 1778227121 | 11.67° C | 71% | 1020.6 hPa | - | - | - | - |
| 1778225321 | 10.56° C | 74% | 1020.4 hPa | - | - | - | - |
| 1778223520 | 8.89° C | 76% | 1020.2 hPa | - | - | - | - |
| 1778221720 | 8.33° C | 77% | 1020.1 hPa | - | - | - | - |
| 1778219921 | 8.33° C | 79% | 1019.8 hPa | - | - | - | - |
| 1778218121 | 7.78° C | 80% | 1019.7 hPa | - | - | - | - |
| 1778216321 | 7.78° C | 81% | 1019.6 hPa | - | - | - | - |
| 1778214521 | 7.78° C | 82% | 1019.5 hPa | - | - | - | - |
| 1778212722 | 7.78° C | 84% | 1019.3 hPa | - | - | - | - |
| 1778210922 | 7.78° C | 85% | 1019.1 hPa | - | - | - | - |
| 1778209123 | 7.78° C | 85% | 1018.9 hPa | - | - | - | - |
| 1778207324 | 7.78° C | 85% | 1018.8 hPa | - | - | - | - |
| 1778205524 | 7.78° C | 84% | 1018.6 hPa | - | - | - | - |
| 1778203725 | 8.33° C | 84% | 1018.7 hPa | - | - | - | - |
| 1778201925 | 8.33° C | 84% | 1018.6 hPa | - | - | - | - |
| 1778200125 | 8.33° C | 84% | 1018.7 hPa | - | - | - | - |
* Rain since midnight (hover to see other rain measurements)
** Current wind speed in m/s (hover to see current wind gust speed)